This demonstration page uses our WeatherBlox Daily Observations layout. Learn more.

Left ArrowRight Arrow

36.19886, -115.1175

Hourly Observations for February 18, 2017

Temp ( °F °C ) Dew Point ( °F °C ) Humidity (%) Winds ( mph kmh ) Pressure ( in mb ) Visibility ( mi km ) Precip ( " mm )
12:53 am 00:53 Cloudy with Light Rain 56 13.3 41 5 57 57 SSE 10 17 29.59 1002 10 16 0.00 0.03
1:53 am 01:53 Cloudy with Light Rain 55 12.8 42 5.6 62 62 VRB 5 7 29.58 1002 10 16 0.03 0.76
2:53 am 02:53 Cloudy with Light Rain 54 12.2 44 6.7 69 69 SSE 13 20 29.58 1002 9 14 0.03 0.76
3:53 am 03:53 Cloudy with Light Rain 53 11.7 45 7.2 74 74 S 18 30 29.56 1001 8 13 0.04 1.02
4:53 am 04:53 Cloudy with Rain 51 10.6 48 8.9 89 89 SE 13 20 29.57 1002 6 10 0.05 1.27
5:53 am 05:53 Cloudy with Light Rain 50 10 49 9.4 96 96 E 3 6 29.57 1001 6 10 0.07 1.78
6:53 am 06:53 Cloudy with Light Rain 50 10 49 9.4 96 96 E 7 11 29.58 1002 5 8 0.13 3.30
7:53 am 07:53 Cloudy with Light Rain 52 11.1 47 8.3 83 83 SSE 9 15 29.59 1002 10 16 0.05 1.27
8:53 am 08:53 Cloudy with Light Rain 50 10 48 8.9 93 93 E 8 13 29.61 1003 10 16 0.03 0.76
9:42 am 09:42 Cloudy with Light Rain 50 10 48 9 94 94 E 9 15 29.56 1001 5 8 0.00 0.00
9:53 am 09:53 Cloudy with Light Rain 50 10 49 9.4 96 96 E 8 13 29.60 1002 10 16 0.03 0.76
10:19 am 10:19 Cloudy with Light Rain 51 10.6 49 9.4 92 92 E 13 20 29.56 1001 10 16 0.02 0.51
10:53 am 10:53 Cloudy 52 11.1 50 10 93 93 E 8 13 29.60 1002 10 16 0.02 0.51
11:53 am 11:53 Cloudy with Light Rain 52 11.1 49 9.4 89 89 E 12 19 29.57 1001 7 11 0.01 0.25
12:53 pm 12:53 Cloudy with Light Rain 52 11.1 50 10 93 93 E 12 19 29.57 1001 6 10 0.02 0.51
1:53 pm 13:53 Cloudy with Light Rain 53 11.7 49 9.4 86 86 E 7 11 29.56 1001 10 16 0.01 0.25
2:53 pm 14:53 Cloudy with Light Rain 54 12.2 50 10 87 87 E 10 17 29.57 1001 10 16 0.01 0.25
3:51 pm 15:51 Cloudy with Light Rain 54 12 50 10 88 88 E 9 15 29.56 1001 10 16 0.01 0.25
3:53 pm 15:53 Cloudy with Light Rain 53 11.7 50 10 89 89 E 10 17 29.59 1002 9 14 0.01 0.25
4:04 pm 16:04 Cloudy with Light Rain 54 12 50 10 88 88 E 16 26 29.56 1001 6 10 0.00 0.00
4:19 pm 16:19 Cloudy with Rain 52 11.1 50 10 93 93 ESE 15 24 29.56 1001 3 4 0.06 1.52
4:42 pm 16:42 Cloudy with Light Rain 52 11 52 11 100 100 E 9 15 29.56 1001 5 8 0.00 0.00
4:53 pm 16:53 Cloudy with Light Rain 52 11.1 50 10 93 93 ENE 6 9 29.60 1003 10 16 0.14 3.56
5:53 pm 17:53 Cloudy with Light Rain 52 11.1 50 10 93 93 E 8 13 29.62 1003 10 16 0.02 0.51
6:53 pm 18:53 Cloudy with Light Rain 51 10.6 50 10 96 96 ESE 7 11 29.64 1004 10 16 0.00 0.03
7:53 pm 19:53 Cloudy 51 10.6 50 10 96 96 SSE 3 6 29.65 1004 10 16 0.01 0.25
8:53 pm 20:53 Cloudy 50 10 50 10 100 100 S 5 7 29.68 1005 10 16 0.00 0.00
9:53 pm 21:53 Cloudy 51 10.6 49 9.4 92 92 ESE 8 13 29.69 1006 10 16 0.00 0.03
10:53 pm 22:53 Cloudy 51 10.6 49 9.4 92 92 SE 5 7 29.70 1006 10 16 0.00 0.00
11:53 pm 23:53 Cloudy 51 10.6 49 9.4 92 92 E 3 6 29.70 1006 10 16 0.00 0.00

Powered by AerisWeather